カタログに戻る

STARLINK-1478

運用中通信VLEO
NORAD 45755·PAYLOAD·🇺🇸 United States

打ち上げ Jun 13, 2020 から Cape Canaveral Space Force Station

Loading…

次のパス (今後24時間)

TLE

最新Source: CelesTrak SupGP

元期: Sep 14, 2026, 20:20 UTC

1 45755C 20038AB  26257.84770833  .00115830  00000+0  42293-3 0  2578
2 45755  53.0393 342.1207 0004434 337.9799 356.4100 15.87606816    10

AllMySatでSTARLINK-1478をリアルタイム追跡

Download on the App Store